Find Starlink 31140

NORAD ID: 58767 Int'l Des: 2024-011 Owner: SPXS Country: US Constellation: starlink operational
LEOCIRCULAR

当前视图

正在加载3D地球...

About Starlink 31140

Starlink 31140 (NORAD 58767) is a starlink constellation satellite (v2 mini) launched Jan 14, 2024 by SPXS of US. It operates in LEO, CIRCULAR orbit with a mass of 730.00 kg.

关于 Starlink 31140

正在加载描述...

即将过境

Passes for default location (London). Set your location on the main map for personalized predictions.

高度历史

Loading altitude history...

两行轨道根数

1 58767U 24011C 26168.91668981 -.00024656 00000-0 -72097-3 0 9995
2 58767 53.1593 267.9128 0001042 94.2473 84.9287 15.34400661 5926
Epoch: Jun 17, 2026 • Age: 7 hours

当前状态

高度 479.0 km
速度 7.63 km/s
星下点 -46.05°S, 162.81°E
发射日期 Jan 14, 2024
运行时间 2.4 years
类型 internet

技术详情

分类 Payload
质量 730.00 kg
干质量 700.00 kg
总质量 730.00 kg
长度 0.30 m
直径 4.10 m
跨度 29.00 m
形状 Box + pan
制造商 SPXS
平台类型 Starlink V2M
阶段状态 In Orbit
所有者/国家 SPXS/US

Most Searched